82606 UUEE-UWKD

Flight info

Callsign 82606
Flight time N/A
Altitude 33000
Route KOGOM3E KOGOM L94 EKPIR M864 INKEB L94 UNORO T788 KOROM KOROM1Q
Aircraft T154/M-SDGRWY/S

Departure

Time 2026-05-01 14:30
Airport Sheremetyevo International Airport (UUEE)

Arrival

Time N/A
Airport Kazan International Airport (UWKD)
Time Latitude Longitude Altitude Speed Heading
2026-05-01 14:03 55.98123 37.42097 619 ft 0 kts 75°
2026-05-01 14:17 55.98124 37.42102 619 ft 2 kts 75°
2026-05-01 14:18 55.98130 37.42162 619 ft 6 kts 92°
2026-05-01 14:18 55.98093 37.42222 618 ft 9 kts 162°
2026-05-01 14:18 55.98024 37.42255 617 ft 12 kts 165°
2026-05-01 14:18 55.97965 37.42283 617 ft 14 kts 165°
2026-05-01 14:19 55.97827 37.42345 615 ft 16 kts 168°
2026-05-01 14:19 55.97734 37.42385 614 ft 8 kts 175°
2026-05-01 14:19 55.97718 37.42383 615 ft 0 kts 198°
2026-05-01 14:19 55.97725 37.42386 615 ft 4 kts 183°
2026-05-01 14:20 55.97749 37.42379 615 ft 1 kts 163°
2026-05-01 14:20 55.97768 37.42369 615 ft 0 kts 163°
2026-05-01 14:22 55.97728 37.42382 615 ft 10 kts 191°
2026-05-01 14:23 55.97693 37.42283 616 ft 11 kts 254°
2026-05-01 14:23 55.97669 37.42123 616 ft 15 kts 255°
2026-05-01 14:23 55.97641 37.41938 620 ft 16 kts 255°
2026-05-01 14:23 55.97611 37.41736 621 ft 18 kts 255°
2026-05-01 14:24 55.97578 37.41513 624 ft 18 kts 255°
2026-05-01 14:24 55.97544 37.41286 626 ft 19 kts 255°
2026-05-01 14:24 55.97507 37.41040 623 ft 22 kts 255°
2026-05-01 14:24 55.97465 37.40762 622 ft 24 kts 255°
2026-05-01 14:25 55.97422 37.40467 622 ft 25 kts 255°
2026-05-01 14:25 55.97377 37.40161 622 ft 25 kts 255°
2026-05-01 14:25 55.97331 37.39850 619 ft 26 kts 255°
2026-05-01 14:25 55.97282 37.39531 617 ft 26 kts 254°
2026-05-01 14:26 55.97236 37.39216 616 ft 26 kts 255°
2026-05-01 14:26 55.97157 37.38695 613 ft 11 kts 240°
2026-05-01 14:26 55.97128 37.38652 613 ft 0 kts 188°
2026-05-01 14:27 55.97127 37.38652 613 ft 0 kts 188°
2026-05-01 14:28 55.97089 37.38661 614 ft 12 kts 166°
2026-05-01 14:28 55.96989 37.38708 616 ft 15 kts 164°
2026-05-01 14:28 55.96883 37.38760 616 ft 16 kts 166°
2026-05-01 14:28 55.96778 37.38811 617 ft 13 kts 153°
2026-05-01 14:29 55.96757 37.38941 619 ft 9 kts 76°
2026-05-01 14:29 55.96761 37.38965 620 ft 0 kts 76°
2026-05-01 14:30 55.97036 37.40802 619 ft 153 kts 75°
2026-05-01 14:30 55.97355 37.42981 691 ft 200 kts 75°
2026-05-01 14:30 55.97697 37.45408 1337 ft 206 kts 75°
2026-05-01 14:31 55.98479 37.50664 2570 ft 250 kts 74°
2026-05-01 14:31 55.98960 37.53801 3116 ft 270 kts 71°
2026-05-01 14:31 55.99553 37.56943 3095 ft 261 kts 69°
2026-05-01 14:31 56.00080 37.59994 3301 ft 262 kts 73°
2026-05-01 14:32 56.00504 37.63163 3841 ft 263 kts 76°
2026-05-01 14:32 56.00473 37.66387 4371 ft 270 kts 106°
2026-05-01 14:32 55.99532 37.69254 4901 ft 275 kts 137°
2026-05-01 14:32 55.97882 37.70988 5462 ft 277 kts 165°
2026-05-01 14:33 55.96010 37.71771 6146 ft 283 kts 168°
2026-05-01 14:33 55.94118 37.72682 6678 ft 283 kts 163°
2026-05-01 14:33 55.92241 37.73909 7147 ft 288 kts 151°
2026-05-01 14:33 55.90939 37.75740 7509 ft 285 kts 129°
2026-05-01 14:34 55.89754 37.78560 8106 ft 291 kts 124°
2026-05-01 14:34 55.88579 37.81445 8654 ft 292 kts 126°
2026-05-01 14:34 55.87356 37.84324 9110 ft 294 kts 126°
2026-05-01 14:34 55.86177 37.87286 9490 ft 293 kts 118°
2026-05-01 14:35 55.85275 37.90597 9915 ft 307 kts 111°
2026-05-01 14:35 55.84433 37.94069 10349 ft 307 kts 112°
2026-05-01 14:35 55.83543 37.97536 10716 ft 307 kts 112°
2026-05-01 14:35 55.82634 38.01002 11080 ft 310 kts 112°
2026-05-01 14:36 55.81725 38.04460 11454 ft 311 kts 111°
2026-05-01 14:36 55.80814 38.07928 11831 ft 311 kts 111°
2026-05-01 14:36 55.79924 38.11380 12204 ft 311 kts 106°
2026-05-01 14:36 55.79551 38.15081 12507 ft 301 kts 85°
2026-05-01 14:37 55.79665 38.18846 12980 ft 317 kts 82°
2026-05-01 14:37 55.79799 38.22864 13576 ft 335 kts 83°
2026-05-01 14:37 55.79884 38.27004 14175 ft 337 kts 83°
2026-05-01 14:37 55.79964 38.31134 14655 ft 336 kts 83°
2026-05-01 14:38 55.80051 38.35291 15120 ft 339 kts 83°
2026-05-01 14:38 55.80140 38.39462 15595 ft 339 kts 82°
2026-05-01 14:38 55.80539 38.43555 16056 ft 335 kts 68°
2026-05-01 14:38 55.81290 38.47441 16566 ft 335 kts 65°
2026-05-01 14:39 55.82041 38.51338 17100 ft 337 kts 67°
2026-05-01 14:39 55.82758 38.55298 17664 ft 338 kts 67°
2026-05-01 14:39 55.82986 38.56573 17847 ft 338 kts 67°
2026-05-01 14:39 55.83691 38.60504 18414 ft 341 kts 67°
2026-05-01 14:40 55.84413 38.64539 19029 ft 342 kts 67°
2026-05-01 14:40 55.85127 38.68560 19606 ft 346 kts 68°
2026-05-01 14:40 55.85879 38.72565 20159 ft 343 kts 64°
2026-05-01 14:40 55.86876 38.76423 20697 ft 343 kts 59°
2026-05-01 14:41 55.87936 38.80185 21257 ft 344 kts 59°
2026-05-01 14:41 55.88714 38.83038 21683 ft 346 kts 60°
2026-05-01 14:41 55.89474 38.85876 22101 ft 347 kts 60°
2026-05-01 14:41 55.90506 38.89759 22685 ft 347 kts 60°
2026-05-01 14:42 55.91526 38.93601 23275 ft 350 kts 60°
2026-05-01 14:42 55.92571 38.97538 23881 ft 353 kts 60°
2026-05-01 14:42 55.93623 39.01516 24448 ft 355 kts 60°
2026-05-01 14:42 55.93883 39.02501 24569 ft 354 kts 60°
2026-05-01 14:43 55.93943 39.02729 24596 ft 354 kts 60°
2026-05-01 14:43 55.94329 39.04192 24762 ft 355 kts 60°
2026-05-01 14:43 55.95293 39.07853 25176 ft 353 kts 59°
2026-05-01 14:44 55.96122 39.11169 25483 ft 349 kts 65°
2026-05-01 14:44 55.96796 39.19935 26326 ft 365 kts 77°
2026-05-01 14:44 55.97009 39.24381 26831 ft 366 kts 77°
2026-05-01 14:45 55.97252 39.28915 27340 ft 368 kts 76°
2026-05-01 14:45 55.97736 39.38008 28316 ft 373 kts 76°
2026-05-01 14:45 55.97973 39.42608 28743 ft 368 kts 76°
2026-05-01 14:46 55.98211 39.47149 29117 ft 373 kts 76°
2026-05-01 14:46 55.98690 39.56383 29862 ft 378 kts 75°
2026-05-01 14:46 55.98889 39.60292 30171 ft 380 kts 75°
2026-05-01 14:47 55.99095 39.64297 30486 ft 378 kts 74°
2026-05-01 14:47 55.99747 39.68713 30760 ft 369 kts 59°
2026-05-01 14:47 56.00931 39.72726 31210 ft 369 kts 55°
2026-05-01 14:48 56.02908 39.81398 31742 ft 398 kts 77°
2026-05-01 14:48 56.02990 39.86404 32162 ft 408 kts 82°
2026-05-01 14:48 56.03082 39.96647 32766 ft 420 kts 82°
2026-05-01 14:49 56.03227 40.07120 33301 ft 425 kts 82°
2026-05-01 14:49 56.03361 40.17719 33453 ft 433 kts 82°
2026-05-01 14:50 56.03603 40.39134 33379 ft 432 kts 83°
2026-05-01 14:51 56.03764 40.55245 33371 ft 433 kts 83°
2026-05-01 14:52 56.03904 40.71339 33345 ft 436 kts 84°
2026-05-01 14:53 56.04006 40.85580 33374 ft 438 kts 84°
2026-05-01 14:54 56.04067 40.95567 33356 ft 438 kts 84°
2026-05-01 14:54 56.04127 41.06440 33387 ft 439 kts 84°
2026-05-01 14:55 56.04176 41.17250 33375 ft 438 kts 84°
2026-05-01 14:55 56.04217 41.28132 33369 ft 440 kts 84°
2026-05-01 14:56 56.04247 41.39067 33369 ft 440 kts 84°
2026-05-01 14:56 56.04269 41.50030 33373 ft 441 kts 84°
2026-05-01 14:57 56.04280 41.60948 33363 ft 442 kts 84°
2026-05-01 14:57 56.04277 41.77401 33347 ft 443 kts 85°
2026-05-01 14:58 56.04278 41.88476 33374 ft 452 kts 85°
2026-05-01 14:58 56.04245 41.99623 33297 ft 446 kts 86°
2026-05-01 14:59 56.04215 42.09021 33366 ft 451 kts 86°
2026-05-01 14:59 56.04171 42.20144 33369 ft 450 kts 85°
2026-05-01 15:00 56.04089 42.36913 33377 ft 450 kts 86°
2026-05-01 15:01 56.04023 42.48092 33381 ft 451 kts 86°
2026-05-01 15:01 56.03933 42.59204 33381 ft 451 kts 87°
2026-05-01 15:02 56.03786 42.70387 33355 ft 452 kts 87°
2026-05-01 15:02 56.03637 42.81612 33363 ft 454 kts 88°
2026-05-01 15:03 56.03479 42.92877 33371 ft 454 kts 88°
2026-05-01 15:03 56.03312 43.04120 33372 ft 454 kts 88°
2026-05-01 15:04 56.03133 43.15395 33392 ft 457 kts 88°
2026-05-01 15:04 56.02944 43.26736 33376 ft 457 kts 88°
2026-05-01 15:05 56.03007 43.37981 33368 ft 453 kts 79°
2026-05-01 15:05 56.03861 43.49115 33392 ft 454 kts 79°
2026-05-01 15:06 56.04625 43.60265 33370 ft 453 kts 79°
2026-05-01 15:06 56.05367 43.71367 33343 ft 454 kts 81°
2026-05-01 15:07 56.06103 43.82586 33356 ft 454 kts 81°
2026-05-01 15:07 56.06823 43.93701 33362 ft 455 kts 81°
2026-05-01 15:08 56.07543 44.04961 33369 ft 456 kts 81°
2026-05-01 15:08 56.08250 44.16186 33363 ft 456 kts 81°
2026-05-01 15:09 56.08950 44.27469 33359 ft 457 kts 81°
2026-05-01 15:09 56.09638 44.38717 33365 ft 456 kts 81°
2026-05-01 15:10 56.10249 44.48771 33352 ft 456 kts 81°
2026-05-01 15:10 56.11258 44.65644 33349 ft 457 kts 85°
2026-05-01 15:11 56.10949 44.82795 33333 ft 462 kts 90°
2026-05-01 15:12 56.10706 44.94232 33343 ft 463 kts 89°
2026-05-01 15:12 56.10317 45.11462 33340 ft 463 kts 90°
2026-05-01 15:14 56.09629 45.40143 33344 ft 464 kts 90°
2026-05-01 15:14 56.09190 45.57367 33391 ft 465 kts 90°
2026-05-01 15:15 56.08576 45.80496 33326 ft 468 kts 91°
2026-05-01 15:16 56.07901 46.03651 33333 ft 468 kts 91°
2026-05-01 15:18 56.06981 46.32524 33318 ft 467 kts 91°
2026-05-01 15:19 56.05595 46.55444 33340 ft 468 kts 109°
2026-05-01 15:19 56.03209 46.66423 33092 ft 478 kts 110°
2026-05-01 15:19 56.02039 46.71927 32691 ft 476 kts 110°
2026-05-01 15:20 55.99697 46.82881 31955 ft 471 kts 110°
2026-05-01 15:20 55.98536 46.88269 31434 ft 474 kts 110°
2026-05-01 15:20 55.97351 46.93751 30923 ft 475 kts 110°
2026-05-01 15:21 55.96169 46.99205 30489 ft 474 kts 110°
2026-05-01 15:21 55.94984 47.04653 30054 ft 473 kts 111°
2026-05-01 15:21 55.93802 47.10077 29601 ft 473 kts 111°
2026-05-01 15:21 55.92604 47.15558 28917 ft 473 kts 111°
2026-05-01 15:22 55.90409 47.25567 27628 ft 441 kts 112°
2026-05-01 15:22 55.90011 47.27377 27398 ft 436 kts 112°
2026-05-01 15:22 55.88906 47.32345 26747 ft 422 kts 113°
2026-05-01 15:23 55.87843 47.37075 26106 ft 410 kts 113°
2026-05-01 15:23 55.86795 47.41762 25396 ft 408 kts 113°
2026-05-01 15:23 55.85767 47.46379 24666 ft 400 kts 113°
2026-05-01 15:23 55.84767 47.50872 23878 ft 393 kts 113°
2026-05-01 15:24 55.83774 47.55327 23099 ft 387 kts 113°
2026-05-01 15:24 55.82789 47.59740 22312 ft 383 kts 113°
2026-05-01 15:24 55.81816 47.64087 21533 ft 378 kts 113°
2026-05-01 15:24 55.80859 47.68353 20730 ft 374 kts 114°
2026-05-01 15:25 55.79909 47.72606 19876 ft 370 kts 114°
2026-05-01 15:25 55.78968 47.76802 19079 ft 365 kts 114°
2026-05-01 15:25 55.78028 47.80976 18307 ft 363 kts 114°
2026-05-01 15:25 55.77102 47.85071 17548 ft 358 kts 113°
2026-05-01 15:26 55.76190 47.89106 16768 ft 356 kts 113°
2026-05-01 15:26 55.75271 47.93157 15865 ft 353 kts 113°
2026-05-01 15:26 55.74527 47.96429 15121 ft 348 kts 112°
2026-05-01 15:27 55.74374 47.97106 14964 ft 348 kts 112°
2026-05-01 15:28 55.72598 48.04949 13175 ft 341 kts 112°
2026-05-01 15:28 55.71718 48.08783 12299 ft 335 kts 112°
2026-05-01 15:28 55.70856 48.12539 11427 ft 329 kts 112°
2026-05-01 15:29 55.69166 48.19901 9684 ft 320 kts 111°
2026-05-01 15:29 55.68338 48.23502 8832 ft 316 kts 111°
2026-05-01 15:29 55.66715 48.30539 7170 ft 307 kts 110°
2026-05-01 15:30 55.65130 48.37393 6161 ft 297 kts 110°
2026-05-01 15:31 55.62396 48.50488 5162 ft 264 kts 90°
2026-05-01 15:31 55.62373 48.56917 5307 ft 266 kts 88°
2026-05-01 15:32 55.62266 48.63731 5342 ft 280 kts 89°
2026-05-01 15:32 55.62150 48.70537 5301 ft 277 kts 89°
2026-05-01 15:33 55.61970 48.80814 5301 ft 280 kts 89°
2026-05-01 15:34 55.61786 48.91017 5306 ft 277 kts 89°